Weather History for Joplin, MO

Change the Weather History Date:

Friday, May 24, 2013

  Actual Average Record
Temperature  
Mean Temperature 66 °F 69 °F  
Max Temperature 76 °F 80 °F 90 °F (1996)
Min Temperature 55 °F 58 °F 45 °F (2001)
Degree Days  
Heating Degree Days 0 1  
Month to date heating degree days 142 59  
Since 1 July heating degree days 4246 4062  
Cooling Degree Days 1 5  
Month to date cooling degree days 54 84  
Year to date cooling degree days 84 138  
Growing Degree Days 15 (Base 50)    
Moisture  
Dew Point 54 °F    
Average Humidity 73    
Maximum Humidity 93    
Minimum Humidity 53    
Precipitation  
Precipitation 0.00 in 0.16 in 2.44 in (1957)
Month to date precipitation 4.11 4.46  
Year to date precipitation 18.61 16.70  
Sea Level Pressure  
Sea Level Pressure 30.21 in    
Wind  
Wind Speed 10 mph (ESE)    
Max Wind Speed 18 mph    
Max Gust Speed 25 mph    
Visibility 10 miles    
Events      
T = Trace of Precipitation, MM = Missing Value Source: NWS Daily Summary

Daily Weather History Graph

Daily Weather History Graph

Search for Another Location

Airport:

Trip Planner

Search our weather history database for the weather conditions in past years. The results will help you decide how hot, cold, wet, or windy it might be!

Date:

Astronomy

May. 24, 2013 Rise Set
Actual Time 6:03 AM CDT 8:27 PM CDT
Civil Twilight 5:33 AM CDT 8:56 PM CDT
Nautical Twilight 4:56 AM CDT 9:33 PM CDT
Astronomical Twilight 4:16 AM CDT 10:14 PM CDT
Moon 8:10 PM CDT (5/24) 5:34 AM CDT (5/24)
Length of Visible Light 15h 23m
Length of Day
14h 23m
Full, 100% of the Moon is Illuminated
May 24
Full
May 24
Full
May 31
Last Quarter
Jun 8
New
Jun 16
First Quarter

Hourly Weather History & Observations

Time (CDT) Temp. Dew Point Humidity Pressure Visibility Wind Dir Wind Speed Gust Speed Precip Events Conditions
12:53 AM 57.0 °F 54.0 °F 89% 30.20 in 10.0 mi East 4.6 mph - N/A   Clear
1:53 AM 57.0 °F 53.1 °F 87% 30.19 in 10.0 mi Variable 5.8 mph - N/A   Clear
2:53 AM 55.9 °F 53.1 °F 90% 30.20 in 10.0 mi ENE 5.8 mph - N/A   Clear
3:53 AM 55.9 °F 53.1 °F 90% 30.21 in 10.0 mi ENE 8.1 mph - N/A   Clear
4:53 AM 55.9 °F 52.0 °F 87% 30.23 in 10.0 mi East 9.2 mph - N/A   Clear
5:53 AM 55.0 °F 52.0 °F 89% 30.24 in 10.0 mi East 10.4 mph - N/A   Clear
7:53 AM 57.9 °F 51.1 °F 78% 30.25 in 10.0 mi East 13.8 mph 19.6 mph N/A   Clear
8:53 AM 61.0 °F 48.0 °F 62% 30.27 in 10.0 mi ESE 16.1 mph 25.3 mph N/A   Clear
9:53 AM 63.0 °F 50.0 °F 63% 30.27 in 10.0 mi ESE 12.7 mph 19.6 mph N/A   Clear
10:53 AM 66.0 °F 52.0 °F 60% 30.27 in 10.0 mi ESE 9.2 mph - N/A   Mostly Cloudy
11:53 AM 68.0 °F 53.1 °F 59% 30.26 in 10.0 mi East 13.8 mph 19.6 mph N/A   Clear
12:53 PM 70.0 °F 55.0 °F 59% 30.25 in 10.0 mi ESE 11.5 mph 21.9 mph N/A   Clear
1:53 PM 72.0 °F 55.9 °F 57% 30.23 in 10.0 mi East 11.5 mph 17.3 mph N/A   Clear
2:53 PM 73.9 °F 57.9 °F 57% 30.22 in 10.0 mi ESE 8.1 mph - N/A   Clear
3:53 PM 75.0 °F 57.9 °F 55% 30.20 in 10.0 mi SE 10.4 mph - N/A   Clear
4:53 PM 75.0 °F 57.9 °F 55% 30.18 in 10.0 mi Variable 5.8 mph 16.1 mph N/A   Clear
5:53 PM 73.9 °F 57.0 °F 55% 30.16 in 10.0 mi ESE 8.1 mph - N/A   Clear
6:53 PM 73.0 °F 55.9 °F 55% 30.15 in 10.0 mi SE 9.2 mph - N/A   Clear
7:53 PM 70.0 °F 55.0 °F 59% 30.14 in 10.0 mi ESE 10.4 mph - N/A   Clear
8:53 PM 66.9 °F 54.0 °F 63% 30.15 in 10.0 mi ESE 8.1 mph - N/A   Clear
9:53 PM 64.9 °F 53.1 °F 65% 30.17 in 10.0 mi ESE 8.1 mph - N/A   Clear
10:53 PM 64.0 °F 53.1 °F 67% 30.18 in 10.0 mi SE 8.1 mph - N/A   Clear
11:53 PM 63.0 °F 51.1 °F 65% 30.17 in 10.0 mi SE 8.1 mph - N/A   Clear